When you browse on this site, cookies collect data to enhance your experience and personalize the content and advertising you see.
Visit our Privacy Policy to learn more. By continuing to use the site, you agree to this use of cookies and data.
  • In Hungary
  • List of Countries
  • For 7 days
  • Water Temperature
  • Weather Map
  • News
  • Weather Widgets
  • user-avatar
    Login

    Hourly Weather Ramazanovo

    Today, 14 October, Monday

    Time Temperature Precipitation Wind Pressure Humidity
    00:00 +7°C° 0.8 mm 8 mps 737 mmHg 86%
    01:00 +7°C° 0.8 mm 8 mps 737 mmHg 91%
    02:00 +9°C° 1.1 mm 8 mps 737 mmHg 92%
    03:00 +9°C° 1.1 mm 7 mps 737 mmHg 94%
    04:00 +9°C° 0 mm 5 mps 736 mmHg 96%
    05:00 +9°C° 0.6 mm 5 mps 736 mmHg 94%
    06:00 +8°C° 0.6 mm 5 mps 736 mmHg 93%
    07:00 +8°C° 0.6 mm 4 mps 736 mmHg 92%
    08:00 +9°C° 0 mm 5 mps 736 mmHg 83%
    09:00 +9°C° 0 mm 6 mps 737 mmHg 74%
    10:00 +10°C° 0 mm 7 mps 737 mmHg 65%
    11:00 +10°C° 0 mm 7 mps 738 mmHg 64%
    12:00 +11°C° 0 mm 7 mps 738 mmHg 63%
    13:00 +11°C° 0 mm 7 mps 738 mmHg 61%
    14:00 +11°C° 0.1 mm 7 mps 738 mmHg 62%
    15:00 +10°C° 0.1 mm 7 mps 739 mmHg 63%
    16:00 +10°C° 0 mm 7 mps 739 mmHg 63%
    17:00 +9°C° 0 mm 6 mps 740 mmHg 67%
    18:00 +8°C° 0 mm 6 mps 740 mmHg 72%
    19:00 +8°C° 0 mm 5 mps 741 mmHg 76%
    20:00 +7°C° 0 mm 5 mps 741 mmHg 77%
    21:00 +7°C° 0 mm 5 mps 741 mmHg 79%
    22:00 +6°C° 0 mm 5 mps 742 mmHg 80%
    23:00 +6°C° 0 mm 4 mps 742 mmHg 82%

    Tomorrow, 15 October, Tuesday

    Time Temperature Precipitation Wind Pressure Humidity
    00:00 +6°C° 0 mm 4 mps 742 mmHg 84%
    01:00 +5°C° 0 mm 4 mps 742 mmHg 86%
    02:00 +6°C° 0 mm 4 mps 742 mmHg 87%
    03:00 +6°C° 0 mm 4 mps 742 mmHg 89%
    04:00 +6°C° 0 mm 4 mps 742 mmHg 90%
    05:00 +5°C° 0 mm 4 mps 742 mmHg 92%
    06:00 +5°C° 0 mm 4 mps 742 mmHg 94%
    07:00 +4°C° 0 mm 3 mps 742 mmHg 95%
    08:00 +5°C° 0.2 mm 4 mps 741 mmHg 93%
    09:00 +6°C° 0.2 mm 5 mps 741 mmHg 91%
    10:00 +6°C° 0.2 mm 7 mps 741 mmHg 88%
    11:00 +8°C° 1.6 mm 7 mps 740 mmHg 87%
    12:00 +7°C° 1.6 mm 8 mps 739 mmHg 85%
    13:00 +8°C° 1.6 mm 9 mps 738 mmHg 83%
    14:00 +10°C° 0.4 mm 9 mps 737 mmHg 81%
    15:00 +12°C° 0.4 mm 9 mps 737 mmHg 78%
    16:00 +15°C° 0.4 mm 9 mps 736 mmHg 76%
    17:00 +15°C° 0.1 mm 8 mps 736 mmHg 73%
    18:00 +15°C° 0.1 mm 8 mps 736 mmHg 70%
    19:00 +15°C° 0.1 mm 8 mps 735 mmHg 67%
    20:00 +13°C° 0 mm 8 mps 735 mmHg 72%
    21:00 +12°C° 0 mm 8 mps 735 mmHg 76%
    22:00 +12°C° 0 mm 7 mps 735 mmHg 80%
    23:00 +11°C° 0.1 mm 7 mps 735 mmHg 82%

    Day after tomorrow, 16 October, Wednesday

    Time Temperature Precipitation Wind Pressure Humidity
    00:00 +11°C° 0.1 mm 7 mps 736 mmHg 84%
    01:00 +10°C° 0.1 mm 7 mps 736 mmHg 86%
    02:00 +9°C° 0 mm 7 mps 737 mmHg 86%
    03:00 +8°C° 0 mm 6 mps 737 mmHg 86%
    04:00 +7°C° 0 mm 6 mps 738 mmHg 87%
    05:00 +6°C° 0 mm 5 mps 738 mmHg 86%
    06:00 +6°C° 0 mm 5 mps 739 mmHg 85%
    07:00 +5°C° 0 mm 4 mps 739 mmHg 84%
    08:00 +5°C° 0.1 mm 4 mps 740 mmHg 80%
    09:00 +6°C° 0.1 mm 5 mps 740 mmHg 76%
    10:00 +5°C° 0.1 mm 6 mps 741 mmHg 72%
    11:00 +7°C° 0 mm 6 mps 741 mmHg 67%
    12:00 +7°C° 0 mm 6 mps 742 mmHg 63%
    13:00 +6°C° 0 mm 7 mps 743 mmHg 58%
    14:00 +6°C° 0 mm 7 mps 743 mmHg 59%
    15:00 +5°C° 0 mm 7 mps 743 mmHg 60%
    16:00 +5°C° 0 mm 7 mps 744 mmHg 60%
    17:00 +4°C° 0 mm 6 mps 744 mmHg 64%
    18:00 +3°C° 0 mm 5 mps 745 mmHg 68%
    19:00 +3°C° 0 mm 4 mps 746 mmHg 72%
    20:00 +1°C° 0 mm 4 mps 746 mmHg 74%
    21:00 +2°C° 0 mm 3 mps 747 mmHg 76%
    22:00 +1°C° 0 mm 3 mps 747 mmHg 77%
    23:00 +1°C° 0 mm 3 mps 748 mmHg 80%

    17 October, Thursday

    Time Temperature Precipitation Wind Pressure Humidity
    00:00 0°C° 0 mm 3 mps 748 mmHg 82%
    01:00 0°C° 0 mm 3 mps 748 mmHg 84%
    02:00 +1°C° 0 mm 2 mps 749 mmHg 85%
    03:00 -1°C° 0 mm 2 mps 749 mmHg 85%
    04:00 -1°C° 0 mm 2 mps 749 mmHg 86%
    05:00 +1°C° 0 mm 1 mps 750 mmHg 86%
    06:00 +1°C° 0 mm 1 mps 750 mmHg 86%
    07:00 +1°C° 0 mm 1 mps 750 mmHg 85%
    08:00 +2°C° 0 mm 1 mps 750 mmHg 78%
    09:00 +2°C° 0 mm 2 mps 751 mmHg 72%
    10:00 +3°C° 0 mm 2 mps 751 mmHg 65%
    11:00 +3°C° 0 mm 3 mps 751 mmHg 61%
    12:00 +4°C° 0 mm 3 mps 750 mmHg 57%
    13:00 +5°C° 0 mm 3 mps 750 mmHg 53%
    14:00 +5°C° 0 mm 3 mps 750 mmHg 54%
    15:00 +5°C° 0 mm 3 mps 750 mmHg 54%
    16:00 +5°C° 0 mm 3 mps 750 mmHg 55%
    17:00 +5°C° 0 mm 2 mps 750 mmHg 58%
    18:00 +5°C° 0 mm 2 mps 749 mmHg 61%
    19:00 +5°C° 0 mm 1 mps 749 mmHg 64%
    20:00 +4°C° 0 mm 2 mps 749 mmHg 64%
    21:00 +4°C° 0 mm 2 mps 749 mmHg 65%
    22:00 +4°C° 0 mm 2 mps 748 mmHg 65%
    23:00 +3°C° 0 mm 3 mps 748 mmHg 65%

    18 October, Friday

    Time Temperature Precipitation Wind Pressure Humidity
    00:00 +3°C° 0 mm 3 mps 747 mmHg 65%
    01:00 +3°C° 0 mm 4 mps 747 mmHg 65%
    02:00 +3°C° 0 mm 4 mps 746 mmHg 63%
    03:00 +3°C° 0 mm 4 mps 746 mmHg 62%
    04:00 +3°C° 0 mm 4 mps 745 mmHg 61%
    05:00 +3°C° 0 mm 4 mps 745 mmHg 61%
    06:00 +2°C° 0 mm 5 mps 744 mmHg 61%
    07:00 +2°C° 0 mm 5 mps 744 mmHg 61%
    08:00 +3°C° 0 mm 6 mps 743 mmHg 57%
    09:00 +5°C° 0 mm 7 mps 743 mmHg 52%
    10:00 +6°C° 0 mm 8 mps 743 mmHg 47%
    11:00 +7°C° 0 mm 8 mps 742 mmHg 45%
    12:00 +9°C° 0 mm 8 mps 742 mmHg 42%
    13:00 +10°C° 0 mm 8 mps 741 mmHg 39%
    14:00 +10°C° 0 mm 7 mps 741 mmHg 41%
    15:00 +10°C° 0 mm 7 mps 741 mmHg 43%
    16:00 +10°C° 0 mm 6 mps 741 mmHg 45%
    17:00 +9°C° 0 mm 5 mps 741 mmHg 51%
    18:00 +8°C° 0 mm 4 mps 741 mmHg 57%
    19:00 +8°C° 0 mm 4 mps 741 mmHg 64%
    20:00 +7°C° 0 mm 4 mps 742 mmHg 70%
    21:00 +6°C° 0 mm 4 mps 742 mmHg 76%
    22:00 +5°C° 0 mm 4 mps 742 mmHg 82%
    23:00 +4°C° 0 mm 4 mps 743 mmHg 77%

    19 October, Saturday

    Time Temperature Precipitation Wind Pressure Humidity
    00:00 +2°C° 0 mm 5 mps 743 mmHg 72%
    01:00 +1°C° 0 mm 5 mps 743 mmHg 67%
    02:00 0°C° 0 mm 5 mps 744 mmHg 68%
    03:00 0°C° 0 mm 5 mps 744 mmHg 69%
    04:00 -1°C° 0 mm 4 mps 745 mmHg 70%
    05:00 -1°C° 0 mm 5 mps 745 mmHg 71%
    06:00 -2°C° 0 mm 5 mps 746 mmHg 72%
    07:00 -2°C° 0 mm 5 mps 747 mmHg 73%
    08:00 -2°C° 0 mm 6 mps 747 mmHg 69%
    09:00 -2°C° 0 mm 6 mps 748 mmHg 66%
    10:00 -1°C° 0 mm 6 mps 749 mmHg 62%
    11:00 +1°C° 0 mm 6 mps 749 mmHg 59%
    12:00 +1°C° 0 mm 6 mps 750 mmHg 57%
    13:00 +2°C° 0 mm 6 mps 750 mmHg 54%
    14:00 +2°C° 0 mm 5 mps 750 mmHg 55%
    15:00 +1°C° 0 mm 5 mps 750 mmHg 56%
    16:00 +1°C° 0 mm 5 mps 751 mmHg 57%
    17:00 0°C° 0 mm 4 mps 751 mmHg 60%
    18:00 -1°C° 0 mm 4 mps 752 mmHg 64%
    19:00 -2°C° 0 mm 4 mps 752 mmHg 68%
    20:00 -2°C° 0 mm 4 mps 752 mmHg 68%
    21:00 -2°C° 0 mm 4 mps 753 mmHg 68%
    22:00 -3°C° 0 mm 4 mps 753 mmHg 68%
    23:00 -3°C° 0 mm 4 mps 753 mmHg 68%
    Show more